Hourly Weather Bolshoe Zahnovo

Today, 1 August, Sunday

Time Temperature Precipitation Wind Pressure Humidity
00:00 +16°C° 0 mm 2 mps 749 mmHg 86%
01:00 +16°C° 0 mm 2 mps 749 mmHg 85%
02:00 +16°C° 0 mm 2 mps 749 mmHg 85%
03:00 +16°C° 0 mm 2 mps 749 mmHg 84%
04:00 +17°C° 0 mm 2 mps 749 mmHg 83%
05:00 +17°C° 0 mm 2 mps 748 mmHg 82%
06:00 +18°C° 0.1 mm 3 mps 748 mmHg 78%
07:00 +20°C° 0.1 mm 3 mps 748 mmHg 74%
08:00 +21°C° 0.1 mm 3 mps 748 mmHg 70%
09:00 +23°C° 0 mm 4 mps 748 mmHg 60%
10:00 +26°C° 0 mm 4 mps 748 mmHg 50%
11:00 +27°C° 0 mm 5 mps 748 mmHg 40%
12:00 +27°C° 0 mm 5 mps 748 mmHg 41%
13:00 +27°C° 0 mm 5 mps 748 mmHg 42%
14:00 +27°C° 0 mm 6 mps 748 mmHg 43%
15:00 +26°C° 0 mm 5 mps 748 mmHg 45%
16:00 +26°C° 0 mm 5 mps 749 mmHg 47%
17:00 +26°C° 0 mm 5 mps 749 mmHg 49%
18:00 +25°C° 0 mm 4 mps 749 mmHg 54%
19:00 +22°C° 0 mm 3 mps 749 mmHg 59%
20:00 +21°C° 0 mm 2 mps 750 mmHg 63%
21:00 +20°C° 0 mm 2 mps 750 mmHg 68%
22:00 +19°C° 0 mm 2 mps 750 mmHg 72%
23:00 +18°C° 0 mm 2 mps 750 mmHg 76%

Tomorrow, 2 August, Monday

Time Temperature Precipitation Wind Pressure Humidity
00:00 +17°C° 0.1 mm 2 mps 750 mmHg 80%
01:00 +17°C° 0.1 mm 2 mps 750 mmHg 85%
02:00 +17°C° 0.1 mm 2 mps 750 mmHg 89%
03:00 +17°C° 0.3 mm 2 mps 750 mmHg 92%
04:00 +16°C° 0.3 mm 2 mps 750 mmHg 95%
05:00 +16°C° 0.3 mm 2 mps 750 mmHg 97%
06:00 +18°C° 0 mm 1 mps 750 mmHg 97%
07:00 +18°C° 0 mm 1 mps 750 mmHg 96%
08:00 +18°C° 0 mm 1 mps 750 mmHg 95%
09:00 +18°C° 0.2 mm 1 mps 749 mmHg 95%
10:00 +18°C° 0.2 mm 1 mps 749 mmHg 95%
11:00 +18°C° 0.2 mm 1 mps 749 mmHg 94%
12:00 +18°C° 1 mm 1 mps 749 mmHg 94%
13:00 +18°C° 1 mm 1 mps 748 mmHg 94%
14:00 +18°C° 1 mm 1 mps 748 mmHg 94%
15:00 +18°C° 0.6 mm 1 mps 748 mmHg 95%
16:00 +18°C° 0.6 mm 1 mps 748 mmHg 95%
17:00 +16°C° 0.6 mm 0 mps 748 mmHg 96%
18:00 +16°C° 0 mm 1 mps 748 mmHg 96%
19:00 +16°C° 0 mm 1 mps 747 mmHg 96%
20:00 +16°C° 0 mm 1 mps 747 mmHg 96%
21:00 +16°C° 0 mm 2 mps 748 mmHg 96%
22:00 +15°C° 0 mm 2 mps 748 mmHg 96%
23:00 +15°C° 0 mm 2 mps 748 mmHg 95%

Day after tomorrow, 3 August, Tuesday

Time Temperature Precipitation Wind Pressure Humidity
00:00 +15°C° 0 mm 2 mps 748 mmHg 96%
01:00 +14°C° 0 mm 2 mps 748 mmHg 96%
02:00 +14°C° 0 mm 2 mps 748 mmHg 96%
03:00 +13°C° 0 mm 2 mps 749 mmHg 96%
04:00 +13°C° 0 mm 2 mps 749 mmHg 96%
05:00 +13°C° 0 mm 2 mps 749 mmHg 96%
06:00 +13°C° 0 mm 3 mps 749 mmHg 91%
07:00 +16°C° 0 mm 3 mps 749 mmHg 86%
08:00 +17°C° 0 mm 4 mps 750 mmHg 81%
09:00 +19°C° 0.1 mm 4 mps 750 mmHg 72%
10:00 +20°C° 0.1 mm 4 mps 750 mmHg 63%
11:00 +21°C° 0.1 mm 4 mps 751 mmHg 55%
12:00 +21°C° 0.1 mm 4 mps 751 mmHg 54%
13:00 +21°C° 0.1 mm 4 mps 751 mmHg 54%
14:00 +21°C° 0.1 mm 4 mps 751 mmHg 54%
15:00 +21°C° 0 mm 4 mps 752 mmHg 49%
16:00 +21°C° 0 mm 3 mps 752 mmHg 44%
17:00 +22°C° 0 mm 3 mps 752 mmHg 39%
18:00 +20°C° 0 mm 3 mps 753 mmHg 46%
19:00 +18°C° 0 mm 3 mps 753 mmHg 54%
20:00 +16°C° 0 mm 2 mps 754 mmHg 61%
21:00 +15°C° 0 mm 2 mps 754 mmHg 65%
22:00 +14°C° 0 mm 2 mps 755 mmHg 68%
23:00 +13°C° 0 mm 2 mps 755 mmHg 72%

4 August, Wednesday

Time Temperature Precipitation Wind Pressure Humidity
00:00 +13°C° 0 mm 2 mps 755 mmHg 75%
01:00 +12°C° 0 mm 2 mps 756 mmHg 79%
02:00 +10°C° 0 mm 2 mps 756 mmHg 83%
03:00 +10°C° 0 mm 2 mps 756 mmHg 84%
04:00 +11°C° 0 mm 1 mps 757 mmHg 85%
05:00 +11°C° 0 mm 1 mps 757 mmHg 86%
06:00 +13°C° 0 mm 1 mps 757 mmHg 77%
07:00 +16°C° 0 mm 1 mps 758 mmHg 68%
08:00 +19°C° 0 mm 1 mps 758 mmHg 59%
09:00 +20°C° 0 mm 1 mps 758 mmHg 53%
10:00 +20°C° 0 mm 2 mps 758 mmHg 48%
11:00 +23°C° 0 mm 2 mps 758 mmHg 42%
12:00 +23°C° 0 mm 2 mps 758 mmHg 42%
13:00 +23°C° 0 mm 1 mps 758 mmHg 42%
14:00 +24°C° 0 mm 1 mps 758 mmHg 41%
15:00 +23°C° 0 mm 1 mps 758 mmHg 44%
16:00 +23°C° 0 mm 1 mps 758 mmHg 47%
17:00 +22°C° 0 mm 1 mps 758 mmHg 50%
18:00 +21°C° 0 mm 1 mps 758 mmHg 53%
19:00 +20°C° 0 mm 1 mps 758 mmHg 56%
20:00 +19°C° 0 mm 1 mps 758 mmHg 59%
21:00 +19°C° 0 mm 1 mps 758 mmHg 60%
22:00 +18°C° 0 mm 1 mps 758 mmHg 61%
23:00 +18°C° 0 mm 1 mps 758 mmHg 62%

5 August, Thursday

Time Temperature Precipitation Wind Pressure Humidity
00:00 +18°C° 0 mm 1 mps 758 mmHg 63%
01:00 +18°C° 0 mm 1 mps 758 mmHg 63%
02:00 +18°C° 0 mm 1 mps 758 mmHg 64%
03:00 +16°C° 0 mm 2 mps 758 mmHg 69%
04:00 +16°C° 0 mm 2 mps 757 mmHg 74%
05:00 +15°C° 0 mm 2 mps 757 mmHg 79%
06:00 +15°C° 0.1 mm 2 mps 757 mmHg 82%
07:00 +15°C° 0.1 mm 2 mps 757 mmHg 84%
08:00 +16°C° 0.1 mm 2 mps 757 mmHg 86%
09:00 +16°C° 0 mm 2 mps 757 mmHg 81%
10:00 +17°C° 0 mm 2 mps 757 mmHg 75%
11:00 +18°C° 0 mm 2 mps 757 mmHg 70%
12:00 +20°C° 0 mm 2 mps 756 mmHg 62%
13:00 +21°C° 0 mm 3 mps 756 mmHg 55%
14:00 +24°C° 0 mm 3 mps 756 mmHg 48%
15:00 +22°C° 0.3 mm 3 mps 755 mmHg 58%
16:00 +21°C° 0.3 mm 3 mps 755 mmHg 68%
17:00 +20°C° 0.3 mm 3 mps 755 mmHg 79%
18:00 +19°C° 0.1 mm 3 mps 755 mmHg 82%
19:00 +18°C° 0.1 mm 3 mps 755 mmHg 86%
20:00 +16°C° 0.1 mm 3 mps 755 mmHg 90%
21:00 +16°C° 0 mm 3 mps 754 mmHg 92%
22:00 +14°C° 0 mm 3 mps 754 mmHg 94%
23:00 +13°C° 0 mm 3 mps 754 mmHg 96%

6 August, Friday

Time Temperature Precipitation Wind Pressure Humidity
00:00 +13°C° 0 mm 3 mps 753 mmHg 96%
01:00 +13°C° 0 mm 3 mps 753 mmHg 96%
02:00 +13°C° 0 mm 3 mps 753 mmHg 95%
03:00 +14°C° 0.3 mm 3 mps 752 mmHg 96%
04:00 +14°C° 0.3 mm 4 mps 751 mmHg 97%
05:00 +14°C° 0.3 mm 4 mps 751 mmHg 98%
06:00 +14°C° 2.1 mm 4 mps 750 mmHg 98%
07:00 +14°C° 2.1 mm 4 mps 749 mmHg 98%
08:00 +15°C° 2.1 mm 5 mps 748 mmHg 98%
09:00 +15°C° 3.1 mm 4 mps 747 mmHg 98%
10:00 +15°C° 3.1 mm 4 mps 747 mmHg 98%
11:00 +15°C° 3.1 mm 4 mps 746 mmHg 98%
12:00 +17°C° 3.2 mm 3 mps 745 mmHg 98%
13:00 +17°C° 3.2 mm 2 mps 745 mmHg 98%
14:00 +18°C° 3.2 mm 1 mps 744 mmHg 98%
15:00 +17°C° 0.8 mm 2 mps 744 mmHg 98%
16:00 +17°C° 0.8 mm 3 mps 745 mmHg 97%
17:00 +17°C° 0.8 mm 4 mps 745 mmHg 97%
18:00 +17°C° 0 mm 4 mps 745 mmHg 97%
19:00 +17°C° 0 mm 4 mps 746 mmHg 97%
20:00 +17°C° 0 mm 3 mps 746 mmHg 97%
21:00 +17°C° 0 mm 3 mps 746 mmHg 97%
22:00 +15°C° 0 mm 4 mps 747 mmHg 97%
23:00 +15°C° 0 mm 4 mps 747 mmHg 97%
Show more

We Need Your Consent

Meteoprog and our Service Providers may store and access personal data such as cookies, device identifiers or other similar technologies on your device and process such data to personalise content and ads, as well as provide social media features and to analyse the traffic.

  • Store and/or access information on your device

    Cookies, device identifiers or other information can be stored or accessed on your device for the purposes indicated above.

  • Personalised ads and content, ad and content measurement, audience insights, and products development

    Ads and content can be personalised based on a profile. More data can be added to better personalise ads and content. Ad and content performance can be measured. Insights about the audience who saw the ads and content can be derived. Such data can be used to develop or improve user’s experience, systems and software.

By clicking ‘I Agree’ you will allow the use of indicated cookies, device identifiers, web beacons or other similar technologies. Your settings can be changed in the browser on your device.

For certain purposes, legitimate interests may be relied on, rather than consent. You can read more about this in our Privacy and Cookie Policy.